CW3699 Weather Reports


Display with metric or nautical units.
time (UTC)temp
F
wind
direction
speed
MPH
gust
MPH
rain 1hr
in
rain 24hr
in
rain mn
in
humidity
%
barometer
mb
20260508173913 47 58 6.0 9.0 0.00 0.00 0.00 68 1008.2
20260508173413 47 54 5.0 9.0 0.00 0.00 0.00 71 1008.2
20260508172912 47 46 5.0 8.0 0.00 0.00 0.00 70 1008.4
20260508172412 46 53 4.0 7.0 0.00 0.00 0.00 72 1008.4
20260508171412 45 54 6.0 9.0 0.00 0.00 0.00 72 1008.5
20260508170910 46 38 5.0 9.0 0.00 0.00 0.00 72 1008.5
20260508170412 46 52 6.0 12.0 0.00 0.00 0.00 73 1008.5
20260508165411 46 48 5.0 9.0 0.00 0.00 0.00 73 1008.7
20260508164912 46 70 3.0 8.0 0.00 0.00 0.00 73 1008.8
20260508164412 46 54 5.0 10.0 0.00 0.00 0.00 74 1008.8
20260508163912 45 75 4.0 9.0 0.00 0.00 0.00 73 1008.9
20260508163413 46 56 6.0 9.0 0.00 0.00 0.00 71 1008.9
20260508162911 46 56 3.0 10.0 0.00 0.00 0.00 74 1008.9
20260508162412 46 73 4.0 9.0 0.00 0.00 0.00 75 1009.0
20260508161910 45 96 5.0 9.0 0.00 0.00 0.00 75 1009.0
20260508161414 45 61 2.0 7.0 0.00 0.00 0.00 77 1009.0
20260508160912 45 58 5.0 9.0 0.00 0.00 0.00 76 1009.0
20260508160412 45 65 5.0 8.0 0.00 0.00 0.00 76 1009.0
20260508155912 46 85 4.0 6.0 0.00 0.00 0.00 77 1009.0
20260508155411 46 51 3.0 6.0 0.00 0.00 0.00 76 1009.0
20260508154911 46 67 3.0 7.0 0.00 0.00 0.00 75 1009.0
20260508154411 46 54 3.0 7.0 0.00 0.00 0.00 74 1009.0
20260508153910 46 40 5.0 7.0 0.00 0.00 0.00 75 1009.1
20260508153413 46 23 3.0 5.0 0.00 0.00 0.00 75 1009.0
20260508152912 46 40 3.0 5.0 0.00 0.00 0.00 75 1009.2
20260508151412 46 52 2.0 3.0 0.00 0.00 0.00 75 1009.2
20260508150913 45 48 3.0 3.0 0.00 0.00 0.00 75 1009.2
20260508150413 45 72 3.0 5.0 0.00 0.00 0.00 74 1009.2
20260508145911 46 27 2.0 5.0 0.00 0.00 0.00 75 1009.3
20260508145410 46 47 2.0 3.0 0.00 0.00 0.00 75 1009.3
20260508144911 46 63 3.0 5.0 0.00 0.00 0.00 77 1009.3
20260508144411 46 5 2.0 3.0 0.00 0.00 0.00 77 1009.3
20260508143415 46 47 2.0 3.0 0.00 0.00 0.00 78 1009.3
20260508142911 46 7 2.0 3.0 0.00 0.00 0.00 78 1009.4
20260508142412 45 37 2.0 3.0 0.00 0.00 0.00 78 1009.4
20260508141912 45 357 3.0 5.0 0.00 0.00 0.00 77 1009.4
20260508141412 45 11 2.0 3.0 0.00 0.00 0.00 80 1009.5
20260508140911 45 8 2.0 3.0 0.00 0.00 0.00 79 1009.5
20260508140411 45 353 3.0 5.0 0.00 0.00 0.00 76 1009.5
20260508135912 45 0 3.0 6.0 0.00 0.00 0.00 75 1009.5
20260508135412 45 17 2.0 3.0 0.00 0.00 0.00 78 1009.5
20260508134911 44 12 3.0 7.0 0.00 0.00 0.00 78 1009.5
20260508133911 44 338 2.0 5.0 0.00 0.00 0.00 78 1009.7
20260508133411 44 308 1.0 5.0 0.00 0.00 0.00 78 1009.7
20260508132912 44 5 2.0 5.0 0.00 0.00 0.00 77 1009.7
20260508132412 44 1 2.0 3.0 0.00 0.00 0.00 76 1009.8
20260508131912 44 329 2.0 5.0 0.00 0.00 0.00 74 1009.8
20260508130412 43 324 2.0 6.0 0.00 0.00 0.00 75 1009.8
20260508125911 43 262 1.0 3.0 0.00 0.00 0.00 75 1009.8
20260508125412 43 356 2.0 3.0 0.00 0.00 0.00 75 1009.9
20260508124413 42 323 2.0 6.0 0.00 0.00 0.00 78 1009.9
20260508123910 42 253 2.0 6.0 0.00 0.00 0.00 78 1009.9
20260508123411 42 307 2.0 5.0 0.00 0.00 0.00 78 1009.8
20260508122412 41 238 2.0 3.0 0.00 0.00 0.00 80 1009.8
20260508121911 41 210 3.0 6.0 0.00 0.00 0.00 80 1009.8
20260508121412 40 204 2.0 5.0 0.00 0.00 0.00 82 1009.8
20260508120912 40 262 3.0 7.0 0.00 0.00 0.00 83 1009.8
20260508120411 39 223 2.0 5.0 0.00 0.00 0.00 85 1009.9
20260508115912 39 223 2.0 7.0 0.00 0.00 0.00 87 1009.9
20260508115412 38 222 1.0 5.0 0.00 0.00 0.00 88 1009.9
20260508114912 37 233 2.0 6.0 0.00 0.00 0.00 89 1009.8
20260508113912 36 201 3.0 9.0 0.00 0.00 0.00 91 1009.9
20260508113412 36 206 2.0 5.0 0.00 0.00 0.00 91 1010.0
20260508112912 35 227 3.0 6.0 0.00 0.00 0.00 92 1009.8
20260508112413 35 217 2.0 3.0 0.00 0.00 0.00 92 1009.8
20260508111912 34 185 2.0 5.0 0.00 0.00 0.00 93 1009.8
20260508111412 34 222 2.0 5.0 0.00 0.00 0.00 93 1009.8
20260508110912 33 184 2.0 3.0 0.00 0.00 0.00 94 1009.8
20260508110412 32 182 2.0 3.0 0.00 0.00 0.00 93 1009.8
20260508105912 32 199 2.0 3.0 0.00 0.00 0.00 93 1009.8
20260508105412 31 184 1.0 3.0 0.00 0.00 0.00 92 1009.7
20260508104911 31 181 2.0 6.0 0.00 0.00 0.00 92 1009.6
20260508104413 31 187 3.0 5.0 0.00 0.00 0.00 91 1009.7
20260508103912 31 169 2.0 3.0 0.00 0.00 0.00 91 1009.7
20260508103412 31 193 2.0 3.0 0.00 0.00 0.00 91 1009.6
20260508102910 31 176 2.0 3.0 0.00 0.00 0.00 91 1009.7
20260508102412 31 178 2.0 3.0 0.00 0.00 0.00 91 1009.7
20260508101912 31 181 2.0 3.0 0.00 0.00 0.00 91 1009.7
20260508101412 31 174 2.0 3.0 0.00 0.00 0.00 91 1009.7
20260508100912 31 175 2.0 3.0 0.00 0.00 0.00 90 1009.6
20260508095911 31 173 2.0 3.0 0.00 0.00 0.00 91 1009.6
20260508095412 31 176 2.0 3.0 0.00 0.00 0.00 90 1009.6
20260508094912 31 187 2.0 3.0 0.00 0.00 0.00 90 1009.6
20260508094411 31 182 2.0 3.0 0.00 0.00 0.00 90 1009.6
20260508093911 31 184 2.0 3.0 0.00 0.00 0.00 89 1009.7
20260508093410 31 176 2.0 3.0 0.00 0.00 0.00 89 1009.8
20260508092910 31 184 2.0 3.0 0.00 0.00 0.00 89 1009.7
20260508092412 31 180 3.0 3.0 0.00 0.00 0.00 89 1009.7
20260508091412 32 169 2.0 3.0 0.00 0.00 0.00 88 1009.9
20260508090910 32 187 2.0 5.0 0.00 0.00 0.00 88 1009.9
20260508090412 32 183 1.0 2.0 0.00 0.00 0.00 88 1009.9
20260508085911 32 187 0.0 2.0 0.00 0.00 0.00 88 1010.0
20260508085410 32 164 1.0 3.0 0.00 0.00 0.00 88 1010.0
20260508083910 32 175 1.0 3.0 0.00 0.00 0.00 89 1010.0
20260508083414 32 181 1.0 3.0 0.00 0.00 0.00 90 1009.9
20260508082412 32 203 1.0 3.0 0.00 0.00 0.00 90 1009.9
20260508081411 32 166 2.0 3.0 0.00 0.00 0.00 91 1010.0
20260508080912 31 188 2.0 3.0 0.00 0.00 0.00 91 1010.0
20260508080410 31 185 3.0 5.0 0.00 0.00 0.00 90 1010.0
20260508075910 31 190 2.0 3.0 0.00 0.00 0.00 90 1009.9
20260508075410 31 172 2.0 5.0 0.00 0.00 0.00 90 1009.9
20260508074910 31 173 2.0 3.0 0.00 0.00 0.00 90 1010.0
20260508074412 31 168 2.0 5.0 0.00 0.00 0.00 90 1010.0
20260508073912 31 174 2.0 3.0 0.00 0.00 0.00 90 1010.1
20260508072912 31 174 2.0 5.0 0.00 0.00 0.00 90 1010.2
20260508072411 31 179 2.0 3.0 0.00 0.00 0.00 90 1010.3
20260508071411 31 168 2.0 3.0 0.00 0.00 0.00 90 1010.4
20260508070911 31 166 2.0 3.0 0.00 0.00 0.00 90 1010.5
20260508070414 31 164 2.0 3.0 0.00 0.00 0.00 90 1010.5
20260508065910 31 172 2.0 3.0 0.00 0.00 0.00 90 1010.7
20260508065410 31 167 2.0 3.0 0.00 0.00 0.00 90 1010.7
20260508064911 31 169 2.0 3.0 0.00 0.00 0.00 90 1010.8
20260508064410 31 176 2.0 3.0 0.00 0.00 0.00 90 1010.9
20260508063911 31 187 2.0 3.0 0.00 0.00 0.00 90 1010.9
20260508063413 31 182 1.0 3.0 0.00 0.00 0.00 90 1011.0
20260508062911 32 182 1.0 2.0 0.00 0.00 0.00 90 1011.0
20260508062411 32 218 1.0 2.0 0.00 0.00 0.00 90 1011.0
20260508061410 32 182 1.0 3.0 0.00 0.00 0.00 90 1011.0
20260508060412 32 180 1.0 2.0 0.00 0.00 0.00 90 1010.9
20260508055912 32 179 1.0 2.0 0.00 0.00 0.00 90 1010.9
20260508055410 32 164 2.0 3.0 0.00 0.00 0.00 90 1011.0
20260508054912 32 161 2.0 3.0 0.00 0.00 0.00 90 1011.1
20260508054411 32 165 1.0 3.0 0.00 0.00 0.00 89 1011.1
20260508053410 33 152 1.0 2.0 0.00 0.00 0.00 89 1011.2
20260508052410 33 166 1.0 3.0 0.00 0.00 0.00 89 1011.3
20260508051910 33 159 1.0 3.0 0.00 0.00 0.00 89 1011.3
20260508051410 33 165 1.0 2.0 0.00 0.00 0.00 89 1011.4
20260508050910 34 162 1.0 2.0 0.00 0.00 0.00 89 1011.4
20260508050414 34 164 2.0 3.0 0.00 0.00 0.00 89 1011.5
20260508045911 34 172 2.0 3.0 0.00 0.00 0.00 89 1011.5
20260508044911 34 155 2.0 2.0 0.00 0.00 0.00 89 1011.4
20260508044410 34 162 1.0 2.0 0.00 0.00 0.00 89 1011.4
20260508043911 34 160 1.0 2.0 0.00 0.00 0.00 89 1011.4
20260508043414 34 165 1.0 2.0 0.00 0.00 0.00 88 1011.4
20260508042910 35 164 1.0 2.0 0.00 0.00 0.00 88 1011.4
20260508042410 35 158 1.0 2.0 0.00 0.00 0.00 88 1011.4
20260508041910 35 164 1.0 2.0 0.00 0.00 0.00 87 1011.4
20260508041411 35 162 1.0 2.0 0.00 0.00 0.00 86 1011.4
20260508040910 35 159 1.0 2.0 0.00 0.00 0.00 86 1011.5
20260508040411 35 183 1.0 3.0 0.00 0.00 0.00 86 1011.4
20260508035912 36 162 1.0 3.0 0.00 0.00 0.00 85 1011.4
20260508035411 36 147 2.0 3.0 0.00 0.00 0.00 84 1011.4
20260508034911 37 153 1.0 2.0 0.00 0.00 0.00 83 1011.3
20260508034412 37 167 1.0 2.0 0.00 0.00 0.00 83 1011.4
20260508033912 37 169 2.0 2.0 0.00 0.00 0.00 83 1011.4
20260508033412 38 177 1.0 2.0 0.00 0.00 0.00 83 1011.3
20260508032911 38 184 1.0 2.0 0.00 0.00 0.00 83 1011.4
20260508032412 39 149 1.0 2.0 0.00 0.00 0.00 83 1011.4
20260508031912 39 156 1.0 2.0 0.00 0.00 0.00 82 1011.4
20260508031411 39 153 1.0 2.0 0.00 0.00 0.00 82 1011.3
20260508030910 40 159 1.0 2.0 0.00 0.00 0.00 82 1011.3
20260508030411 40 161 2.0 3.0 0.00 0.00 0.00 81 1011.4
20260508025912 40 165 1.0 3.0 0.00 0.00 0.00 81 1011.4
20260508024910 40 146 1.0 2.0 0.00 0.00 0.00 81 1011.3
20260508024411 41 237 0.0 1.0 0.00 0.00 0.00 81 1011.3
20260508023910 41 187 1.0 3.0 0.00 0.00 0.00 81 1011.4
20260508023410 41 19 1.0 3.0 0.00 0.00 0.00 81 1011.4
20260508022910 41 177 0.0 2.0 0.00 0.00 0.00 80 1011.4
20260508021410 41 238 1.0 3.0 0.00 0.00 0.00 80 1011.2
20260508020911 41 170 2.0 3.0 0.00 0.00 0.00 80 1011.4
20260508020410 41 166 1.0 3.0 0.00 0.00 0.00 79 1011.4
20260508015911 41 204 0.0 3.0 0.00 0.00 0.00 80 1011.4
20260508014910 42 80 1.0 2.0 0.00 0.00 0.00 79 1011.4
20260508014411 42 38 1.0 2.0 0.00 0.00 0.00 79 1011.4
20260508013410 42 81 0.0 2.0 0.00 0.00 0.00 78 1011.4
20260508012910 42 187 1.0 3.0 0.00 0.00 0.00 77 1011.3
20260508011409 42 179 1.0 3.0 0.00 0.00 0.00 75 1011.1
20260508010911 42 133 0.0 1.0 0.00 0.00 0.00 74 1011.1
20260508010412 42 161 0.0 1.0 0.00 0.00 0.00 73 1011.1
20260508005911 42 122 0.0 2.0 0.00 0.00 0.00 73 1011.0
20260508005411 43 275 0.0 1.0 0.00 0.00 0.00 73 1011.1
20260508004912 43 82 0.0 2.0 0.00 0.00 0.00 73 1010.9
20260508004411 43 223 0.0 1.0 0.00 0.00 0.00 74 1010.9
20260508003911 43 54 1.0 2.0 0.00 0.00 0.00 74 1010.9
20260508003411 43 179 1.0 2.0 0.00 0.00 0.00 75 1010.9
20260508002911 43 214 0.0 1.0 0.00 0.00 0.00 75 1010.9
20260508002410 43 240 0.0 2.0 0.00 0.00 0.00 76 1010.8
20260508001410 44 358 1.0 2.0 0.00 0.00 0.00 74 1010.7
20260508000911 44 354 1.0 2.0 0.00 0.00 0.00 75 1010.7
20260508000412 44 336 0.0 3.0 0.00 0.00 0.00 74 1010.7
20260507235910 44 268 1.0 3.0 0.00 0.00 0.00 73 1010.7
20260507235410 44 340 1.0 2.0 0.00 0.00 0.00 73 1010.7
20260507234912 44 319 1.0 2.0 0.00 0.00 0.00 73 1010.6
20260507234411 44 351 1.0 2.0 0.00 0.00 0.00 72 1010.6
20260507233912 44 16 1.0 2.0 0.00 0.00 0.00 71 1010.6
20260507233410 44 12 1.0 2.0 0.00 0.00 0.00 72 1010.6
20260507232911 44 2 1.0 2.0 0.00 0.00 0.00 72 1010.5
20260507232411 45 333 1.0 3.0 0.00 0.00 0.00 71 1010.6
20260507231910 45 343 1.0 3.0 0.00 0.00 0.00 73 1010.6
20260507231409 45 10 1.0 6.0 0.00 0.00 0.00 71 1010.6
20260507230911 45 34 1.0 2.0 0.00 0.00 0.00 73 1010.6
20260507230411 45 311 1.0 2.0 0.00 0.00 0.00 73 1010.6
20260507225409 45 344 1.0 3.0 0.00 0.00 0.00 72 1010.7
20260507224909 45 340 2.0 3.0 0.00 0.00 0.00 71 1010.7
20260507224411 45 346 1.0 3.0 0.00 0.00 0.00 70 1010.7
20260507223911 45 346 2.0 3.0 0.00 0.00 0.00 70 1010.7
20260507223411 45 334 2.0 3.0 0.00 0.00 0.00 70 1010.7
20260507222909 45 332 2.0 3.0 0.00 0.00 0.00 69 1010.7
20260507222411 45 338 2.0 3.0 0.00 0.00 0.00 67 1010.7
20260507221910 45 343 2.0 5.0 0.00 0.00 0.00 67 1010.7
20260507221409 46 339 2.0 5.0 0.00 0.00 0.00 66 1010.6
20260507220911 46 339 2.0 3.0 0.00 0.00 0.00 65 1010.6
20260507220411 46 359 2.0 5.0 0.00 0.00 0.00 66 1010.6
20260507215410 46 341 2.0 3.0 0.00 0.00 0.00 67 1010.6
20260507213910 46 342 2.0 5.0 0.00 0.00 0.00 66 1010.5
20260507213411 46 345 2.0 3.0 0.00 0.00 0.00 66 1010.5
20260507212911 46 337 2.0 3.0 0.00 0.00 0.00 65 1010.5
20260507211409 46 347 2.0 5.0 0.00 0.00 0.00 65 1010.5
20260507205911 46 328 2.0 3.0 0.00 0.00 0.00 63 1010.5
20260507205411 46 350 3.0 7.0 0.00 0.00 0.00 63 1010.5
20260507204913 47 358 2.0 8.0 0.00 0.00 0.00 62 1010.5
20260507204411 47 342 2.0 3.0 0.00 0.00 0.00 64 1010.5
20260507203910 47 343 2.0 3.0 0.00 0.00 0.00 63 1010.5
20260507202911 48 6 2.0 8.0 0.00 0.00 0.00 58 1010.4
20260507202411 48 357 2.0 6.0 0.00 0.00 0.00 54 1010.5
20260507201410 47 79 1.0 3.0 0.00 0.00 0.00 63 1010.5
20260507200910 47 21 2.0 3.0 0.00 0.00 0.00 61 1010.5
20260507200412 47 19 2.0 5.0 0.00 0.00 0.00 59 1010.5
20260507195910 47 88 2.0 7.0 0.00 0.00 0.00 61 1010.6
20260507195411 48 13 2.0 5.0 0.00 0.00 0.00 61 1010.6
20260507194911 48 3 2.0 6.0 0.00 0.00 0.00 61 1010.7
20260507194410 48 300 3.0 8.0 0.00 0.00 0.00 49 1010.6
20260507193910 48 310 4.0 8.0 0.00 0.00 0.00 50 1010.7
20260507193410 48 13 2.0 6.0 0.00 0.00 0.00 53 1010.7
20260507192910 48 338 3.0 9.0 0.00 0.00 0.00 53 1010.8
20260507192411 48 263 1.0 5.0 0.00 0.00 0.00 55 1010.9
20260507191910 47 233 5.0 17.0 0.00 0.00 0.00 55 1010.8
20260507190911 46 171 1.0 3.0 0.00 0.00 0.00 63 1011.1
20260507190410 46 9 2.0 5.0 0.00 0.00 0.00 67 1011.1
20260507185910 46 51 1.0 3.0 0.00 0.00 0.00 66 1011.1
20260507184911 46 9 2.0 5.0 0.00 0.00 0.00 67 1011.1
20260507184411 46 349 2.0 6.0 0.00 0.00 0.00 68 1011.1
20260507183910 46 0 2.0 3.0 0.00 0.00 0.00 69 1011.2
20260507183411 46 5 3.0 6.0 0.00 0.00 0.00 69 1011.2
20260507182911 45 6 2.0 7.0 0.00 0.00 0.00 70 1011.3
20260507182409 45 356 4.0 7.0 0.00 0.00 0.00 70 1011.4
20260507181911 46 358 3.0 7.0 0.00 0.00 0.00 71 1011.4
20260507180910 46 356 4.0 8.0 0.00 0.00 0.00 69 1011.4
20260507180413 46 0 3.0 9.0 0.00 0.00 0.00 68 1011.5
20260507175911 46 15 3.0 6.0 0.00 0.00 0.00 69 1011.6
20260507175411 46 3 2.0 5.0 0.00 0.00 0.00 69 1011.7
20260507174910 46 20 3.0 7.0 0.00 0.00 0.00 68 1011.7
20260507174411 46 50 2.0 3.0 0.00 0.00 0.00 67 1011.8